Lossiemouth, United Kingdom

4:10 AM GMT on January 18, 2017 (GMT +0000)
Lossiemouth Air Base

Weather History for EGQS - November, 2012

Change the Weather History Date:

Tuesday, November 20, 2012

  Actual Average Record
Temperature  
Mean Temperature 50 °F -  
Max Temperature 53 °F 43 °F 57 °F (2011)
Min Temperature 46 °F 34 °F 21 °F (2016)
Degree Days  
Heating Degree Days 16    
Moisture  
Dew Point 42 °F    
Average Humidity 72    
Maximum Humidity 82    
Minimum Humidity 55    
Precipitation  
Precipitation 0.00 in - - ()
Sea Level Pressure  
Sea Level Pressure 29.34 in    
Wind  
Wind Speed 14 mph ()    
Max Wind Speed 24 mph    
Max Gust Speed 37 mph    
Visibility 6.2 miles    
Events Rain    
Averages and records for this station are not official NWS values.
T = Trace of Precipitation, MM = Missing Value Source: Averaged Metar Reports

Daily Weather History Graph

Daily Weather History Graph

Search for Another Location

Airport or City:

Trip Planner

Search our weather history database for the weather conditions in past years. The results will help you decide how hot, cold, wet, or windy it might be!

Date:

Astronomy

Nov. 20, 2012 Rise Set
Actual Time 8:09 AM GMT 3:47 PM GMT
Civil Twilight 7:23 AM GMT 4:33 PM GMT
Nautical Twilight 6:34 AM GMT 5:22 PM GMT
Astronomical Twilight 5:48 AM GMT 6:08 PM GMT
Moon 12:54 PM GMT (11/20) 11:52 PM GMT (11/20)
Length of Visible Light 9h 09m
Length of Day
7h 37m
Waxing Crescent, 49% of the Moon is Illuminated
Nov 20
Waxing Crescent
Nov 20
First Quarter
Nov 28
Full
Dec 6
Last Quarter
Dec 13
New

Hourly Weather History & Observations

Time (GMT) Temp. Windchill Dew Point Humidity Pressure Visibility Wind Dir Wind Speed Gust Speed Precip Events Conditions
12:50 AM 50.0 °F - 41.0 °F 71% 29.36 in - SW 17.3 mph - N/A   Clear
1:50 AM 50.0 °F - 41.0 °F 71% 29.36 in - SW 20.7 mph - N/A   Clear
2:50 AM 49 °F - 41 °F 64% 29.40 in 31 mi SSW 17.3 mph - -  
2:50 AM 48.2 °F - 41.0 °F 76% 29.39 in - SSW 17.3 mph - N/A   Clear
3:50 AM 48.2 °F - 41.0 °F 76% 29.39 in - SW 18.4 mph - N/A   Clear
4:50 AM 48.2 °F - 41.0 °F 76% 29.39 in - SW 9.2 mph - N/A   Clear
5:50 AM 47 °F - 40 °F 68% 29.42 in 31 mi SSW 9.2 mph - -   Clear
5:50 AM 46.4 °F 41.9 °F 39.2 °F 76% 29.39 in - SSW 9.2 mph - N/A   Clear
6:50 AM 48.2 °F - 39.2 °F 71% 29.42 in - South 10.4 mph - N/A   Clear
7:50 AM 48.2 °F - 41.0 °F 76% 29.39 in - South 9.2 mph - N/A   Clear
8:50 AM 51 °F - 42 °F 61% 29.42 in 37 mi South 15.0 mph - -   Scattered Clouds
8:50 AM 51.8 °F - 41.0 °F 67% 29.39 in 6.2 mi South 15.0 mph - N/A   Mostly Cloudy
9:50 AM 51.8 °F - 42.8 °F 71% 29.39 in 6.2 mi SE 11.5 mph - N/A   Mostly Cloudy
10:50 AM 51.8 °F - 44.6 °F 76% 0.00 in 6.2 mi SE 15.0 mph - N/A   Mostly Cloudy
11:50 AM 51 °F - 47 °F 82% 29.33 in 28 mi SE 17.3 mph - -   Partly Cloudy
11:50 AM 51.8 °F - 46.4 °F 82% 29.33 in 6.2 mi SE 17.3 mph - N/A   Mostly Cloudy
12:50 PM 53.6 °F - 46.4 °F 77% 29.30 in 6.2 mi SE 15.0 mph - N/A   Mostly Cloudy
1:50 PM 53.6 °F - 48.2 °F 82% 29.24 in 6.2 mi SSE 23.0 mph - N/A Rain Light Rain
2:50 PM 53 °F - 47 °F 73% 29.26 in 31 mi SSE 13.8 mph - - Rain Light Rain
2:50 PM 53.6 °F - 46.4 °F 77% 29.24 in 6.2 mi SSE 13.8 mph - N/A   Partly Cloudy
3:50 PM 51.8 °F - 46.4 °F 82% 29.24 in 6.2 mi SSE 11.5 mph - N/A   Scattered Clouds
4:50 PM 51.8 °F - 44.6 °F 76% 29.27 in 6.2 mi SW 10.4 mph - N/A   Partly Cloudy
5:50 PM 49 °F - 42 °F 71% 29.28 in 37 mi WSW 12.7 mph - -   Partly Cloudy
5:50 PM 48.2 °F - 42.8 °F 82% 29.27 in 6.2 mi WSW 12.7 mph - N/A   Partly Cloudy
6:50 PM 48.2 °F - 39.2 °F 71% 29.27 in 6.2 mi South 4.6 mph - N/A   Partly Cloudy
7:50 PM 50.0 °F - 35.6 °F 58% 29.27 in 6.2 mi SSW 16.1 mph - N/A   Partly Cloudy
8:50 PM 49 °F - 38 °F 55% 29.32 in 31 mi SW 24.2 mph - -   Scattered Clouds
8:50 PM 48.2 °F - 37.4 °F 66% 29.30 in 6.2 mi SW 24.2 mph 36.8 mph N/A   Scattered Clouds
9:50 PM 48.2 °F - 37.4 °F 66% 29.33 in 6.2 mi SSW 20.7 mph - N/A   Scattered Clouds
10:50 PM 48.2 °F - 37.4 °F 66% 29.36 in 6.2 mi SSW 21.9 mph 33.4 mph N/A   Scattered Clouds
11:50 PM 47 °F - 37 °F 60% 29.42 in 31 mi SW 21.9 mph - -   Scattered Clouds
11:50 PM 48.2 °F - 37.4 °F 66% 29.42 in 6.2 mi SW 21.9 mph - N/A   Scattered Clouds